Location: Chacón
(10.5789°N, 66.9317°W)
Time: 06:36:57
(UTC+00:00)

Sakura Rocket - Pass Details

Date: 12 August 2024
Orbit: 475 x 1710 km, 28.7° (Epoch: 16 September)

Event Time Altitude Azimuth Distance (km) Brightness Sun altitude
Exits shadow 08:22:51 14° 323° (NW) 2,506 6.0 -27.6°
Maximum altitude 08:28:19 38° 26° (NNE) 1,775 5.6 -26.4°
Drops below altitude 10° 08:36:42 10° 91° (E) 3,627 7.9 -24.5°
Sets 08:40:28 0° 98° (E) 4,758 8.6 -23.6°
